Location: Appleton
(44.2618°N, 88.4157°W)
Time: 22:16:07
(UTC+00:00)

ISS - Visible Passes

Search period start: 22 January 2021 00:00
Search period end: 01 February 2021 00:00
Orbit: 418 x 421 km, 51.6° (Epoch: 23 January)

Date Brightness Start Highest point End Pass type
(mag) Time Alt. Az. Time Alt. Az. Time Alt. Az.
22 Jan -3.3 00:40:53 10° WSW 00:44:12 52° NNW 00:44:21 51° NNW visible
22 Jan -3.7 23:53:26 10° WSW 23:56:49 77° NNW 23:59:03 20° NE visible
23 Jan -0.8 01:31:08 10° WNW 01:32:02 15° WNW 01:32:02 15° WNW visible
24 Jan -2.4 00:43:29 10° W 00:46:31 30° NNW 00:46:41 30° N visible
24 Jan -2.7 23:55:51 10° W 23:59:02 37° NNW 00:01:17 17° NE visible
25 Jan -0.7 01:33:44 10° NW 01:34:16 13° NW 01:34:16 13° NW visible
26 Jan -2.0 00:46:08 10° WNW 00:48:50 23° N 00:48:50 23° N visible
26 Jan -2.2 23:58:28 10° WNW 00:01:22 25° N 00:03:24 15° NE visible
27 Jan -0.6 01:36:01 10° NW 01:36:22 12° NW 01:36:22 12° NW visible
28 Jan -2.0 00:48:32 10° NW 00:50:55 23° N 00:50:55 23° N visible
29 Jan -2.1 00:00:59 10° NW 00:03:44 22° N 00:05:29 16° NE visible
29 Jan -0.7 01:38:00 10° NW 01:38:27 13° NW 01:38:27 13° NW visible
30 Jan -2.3 00:50:37 10° NW 00:53:02 27° N 00:53:02 27° N visible
31 Jan -2.3 00:03:11 10° NW 00:06:04 25° N 00:07:39 18° NE visible
31 Jan -0.8 01:39:54 10° WNW 01:40:38 16° NW 01:40:38 16° NW visible
